{"data":{"norad_id":64876,"intl_designator":"2025-155A","name":"IONOSFERA-M 3","alt_names":[],"object_type":"PAYLOAD","status":"ACTIVE","operator":null,"country":"CIS","launch_date":"2025-07-25","launch_site_code":"VOSTO","launch_vehicle":null,"mission":null,"orbit_class":"UNKNOWN","rcs_meters":null,"size_class":null,"mass_kg":null,"dimensions":null,"purposes":["earth_obs"],"wikipedia_slug":null,"has_3d_model":false,"image_url":null,"decayed_at":null,"tle_current":{"epoch":"2026-09-19T23:43:33.554784Z","epoch_age_seconds":62404,"freshness":"FRESH","line1":"1 64876U 25155A   26262.98858281  .00000036  00000+0  36244-4 0  9997","line2":"2 64876  98.6149 222.5539 0000882   5.7271 354.3916 14.21499906 59873","mean_motion":14.21499906,"eccentricity":8.82e-5,"inclination_deg":98.6149,"raan_deg":222.5539,"arg_perigee_deg":5.7271,"mean_anomaly_deg":354.3916,"bstar":3.6244e-5,"rev_number":5987,"period_min":101.30144883738,"perigee_km":819.649789682,"apogee_km":820.9195912682,"semimajor_km":7198.4216904751,"source":"CELESTRAK","updated_at":"2026-09-20T09:00:33.981751Z"}}}